Weather in Ivanivka

Ukraine / Kyiv Region     49°52′09″N   30°24′00″E
temp.,
°C
wind,
m/s
gust,
m/s
humid.,
%
clouds,
%
prec.,
mm/h
press.,
hPa
HPBL,
m
27 september, mon
mon2700:00+9n34801 0.0 102160
03:00+8nnw33860 0.0 102234
06:00+6n37930 0.0 1023138
09:00+9nne47740 0.0 1023450
12:00+13nne45553 0.0 10231176
15:00+15nne454721 0.0 10221542
18:00+12ne57595 0.0 1023518
21:00+8nne367679 0.0 1024102
28 september, tue
tue2800:00+8nne368162 0.0 1024101
03:00+7nne33886 0.0 102446
06:00+6nne34945 0.0 102566
09:00+9ne35795 0.0 1025321
12:00+14ne45545 0.0 10251219
15:00+14ne444995 0.1 10251547
18:00+13ne4656100 0.1 1026359
21:00+10ene497392 0.1 1028308
29 september, wed
wed2900:00+9ene3683100 0.1 1029256
03:00+9ene3787100 0.3 1029309
06:00+8ene378499 0.0 1030335
09:00+9e577319 0.0 1031543
12:00+13e555275 0.0 10311420
15:00+12e4551100 0.0 10311515
18:00+11ene5758100 0.0 1031642
21:00+10e3661100 0.0 1032260
30 september, thu
thu3000:00+10e3552100 0.0 1033193
03:00+9ene356072 0.0 1032132
06:00+5e35735 0.0 103383
09:00+8ese46581 0.0 1034280
12:00+13se45420 0.0 10331207
15:00+15ese44320 0.0 10321492
18:00+13e36410 0.0 1032139
21:00+8ese37511 0.0 1033116
1 october, fri
fri100:00+6se35551 0.0 103479
03:00+5se33585 0.0 103442
06:00+5se33604 0.0 103428
09:00+9se35455 0.0 1035217
12:00+14se45325 0.0 10341169
15:00+16se442910 0.0 10331528
18:00+13se343892 0.0 103253
21:00+8ese495513 0.0 1033157